PROFILE

 METAR AND TAF INFORMATION
ADDS - METARS form results

(1147 UTC 16 October 2019)
http://aviationweather.gov/metar/data/
 
LIMJ 161120Z 13016KT 9999 FEW030 20/14 Q1017
LIMJ 161050Z 13013KT 9999 FEW030 20/14 Q1017
TAF LIMJ 161100Z 1612/1712 12008KT 9999 SCT030 

 AIRPORT MAP

 RUNWAY INFORMATION
Runway 10 Runway length 9564 ft Runway width 148 ft
Runway elevation 9 ft Runway displaced threshold 0 ft Runway heading 105
Runway 28 Runway length 9564 ft Runway width 148 ft
Runway elevation 12 ft Runway displaced threshold 528 ft Runway heading 285

 AIRPORT FREQUENCIES
Type APP Name APP Frequency 119.6 MHZ
Type ATIS Name ATIS Frequency 122.825 MHZ
Type TWR Name TWR Frequency 118.6 MHZ

 AIRPORT NEAR NAVIGATION AIDS
Type VOR-DME Name Genova Frequency 112800 KHZ
Type NDB Name Genova Frequency 318 KHZ
Type VOR-DME Name Genova Sestri Frequency 108600 KHZ